North Platte, NE

5:50 AM CDT on June 24, 2017 (GMT -0500)
North Platte Regional-Bird

Weather History for KLBF - January, 2015

Change the Weather History Date:

Tuesday, January 20, 2015

  Actual Average Record
Temperature  
Mean Temperature 33 °F 25 °F  
Max Temperature 48 °F 39 °F 68 °F (1950)
Min Temperature 18 °F 11 °F -20 °F (1883)
Degree Days  
Heating Degree Days 32 40  
Month to date heating degree days 849 805  
Since 1 July heating degree days 3536 3585  
Cooling Degree Days 0 0  
Month to date cooling degree days 0 0  
Year to date cooling degree days 0 0  
Moisture  
Dew Point 21 °F    
Average Humidity 63    
Maximum Humidity 92    
Minimum Humidity 34    
Precipitation  
Precipitation 0.00 in 0.01 in 0.37 in (2007)
Month to date precipitation 0.05 0.22  
Year to date precipitation 0.05 0.22  
Snow  
Snow 0.00 in 0.10 in 4.60 in (2007)
Month to date snowfall 1.5 3.1  
Since 1 July snowfall 10.6 13.9  
Snow Depth 0.00 in    
Sea Level Pressure  
Sea Level Pressure 30.17 in    
Wind  
Wind Speed 10 mph (WNW)    
Max Wind Speed 26 mph    
Max Gust Speed 33 mph    
Visibility 10 miles    
Events      
T = Trace of Precipitation, MM = Missing Value Source: NWS Daily Summary

Daily Weather History Graph

Daily Weather History Graph

Search for Another Location

Airport or City:

Trip Planner

Search our weather history database for the weather conditions in past years. The results will help you decide how hot, cold, wet, or windy it might be!

Date:

Astronomy

Jan. 20, 2015 Rise Set
Actual Time 8:03 AM CST 5:44 PM CST
Civil Twilight 7:33 AM CST 6:14 PM CST
Nautical Twilight 6:59 AM CST 6:48 PM CST
Astronomical Twilight 6:26 AM CST 7:21 PM CST
Moon 7:47 AM CST (1/20) 6:24 PM CST (1/20)
Length of Visible Light 10h 41m
Length of Day
9h 41m
New Moon, 0% of the Moon is Illuminated
Jan 20
New Moon
Jan 26
First Quarter
Feb 3
Full
Feb 11
Last Quarter
Feb 18
New

Hourly Weather History & Observations

Time (CST) Temp. Windchill Dew Point Humidity Pressure Visibility Wind Dir Wind Speed Gust Speed Precip Events Conditions
12:53 AM 24.1 °F 17.0 °F 19.9 °F 84% 30.12 in 10.0 mi WNW 5.8 mph - N/A   Clear
1:53 AM 25.0 °F 18.1 °F 21.0 °F 85% 30.11 in 10.0 mi NW 5.8 mph - N/A   Mostly Cloudy
2:53 AM 21.9 °F 13.4 °F 19.0 °F 89% 30.13 in 10.0 mi West 6.9 mph - N/A   Scattered Clouds
3:53 AM 23.0 °F 17.0 °F 19.9 °F 88% 30.12 in 10.0 mi NW 4.6 mph - N/A   Partly Cloudy
4:53 AM 19.0 °F 10.0 °F 16.0 °F 88% 30.14 in 10.0 mi WNW 6.9 mph - N/A   Clear
5:53 AM 21.0 °F 12.4 °F 19.0 °F 92% 30.15 in 10.0 mi NW 6.9 mph - N/A   Clear
6:53 AM 21.0 °F 12.4 °F 18.0 °F 88% 30.17 in 10.0 mi WNW 6.9 mph - N/A   Clear
7:53 AM 19.0 °F 9.0 °F 16.0 °F 88% 30.21 in 10.0 mi NW 8.1 mph - N/A   Clear
8:53 AM 26.1 °F 17.6 °F 21.9 °F 84% 30.20 in 10.0 mi NW 8.1 mph - N/A   Clear
9:53 AM 33.8 °F 26.4 °F 26.6 °F 75% 30.13 in 10.0 mi WNW 9.2 mph - N/A   Clear
10:53 AM 37.9 °F 29.6 °F 27.0 °F 65% 30.20 in 10.0 mi WNW 13.8 mph - N/A   Clear
11:53 AM 42.8 °F 35.1 °F 26.6 °F 53% 30.13 in 10.0 mi WNW 16.1 mph - N/A   Mostly Cloudy
12:53 PM 46.0 °F 39.3 °F 24.1 °F 42% 30.16 in 10.0 mi WNW 16.1 mph - N/A   Partly Cloudy
1:53 PM 48.0 °F - 24.1 °F 39% 30.13 in 10.0 mi WNW 12.7 mph - N/A   Clear
2:53 PM 46.9 °F - 21.9 °F 37% 30.14 in 10.0 mi WNW 23.0 mph 31.1 mph N/A   Clear
3:53 PM 46.0 °F 38.3 °F 19.9 °F 35% 30.14 in 10.0 mi NW 20.7 mph 28.8 mph N/A   Scattered Clouds
4:53 PM 43.0 °F 35.7 °F 21.9 °F 43% 30.17 in 10.0 mi NW 15.0 mph 26.5 mph N/A   Partly Cloudy
5:53 PM 37.0 °F 29.3 °F 23.0 °F 57% 30.19 in 10.0 mi NW 11.5 mph - N/A   Partly Cloudy
6:53 PM 30.0 °F 21.7 °F 21.0 °F 69% 30.21 in 10.0 mi WNW 9.2 mph - N/A   Clear
7:53 PM 26.1 °F 19.4 °F 21.0 °F 81% 30.24 in 10.0 mi NW 5.8 mph - N/A   Clear
8:53 PM 25.0 °F 20.7 °F 19.9 °F 81% 30.22 in 10.0 mi NW 3.5 mph - N/A   Clear
9:53 PM 23.0 °F 14.7 °F 19.0 °F 85% 30.22 in 10.0 mi WNW 6.9 mph - N/A   Clear
10:53 PM 24.1 °F 15.2 °F 19.9 °F 84% 30.23 in 10.0 mi WNW 8.1 mph - N/A   Clear
11:53 PM 24.1 °F 16.0 °F 21.0 °F 88% 30.24 in 10.0 mi West 6.9 mph - N/A   Clear